Zurück zum Katalog

STARLINK-34960

AktivKommunikationVLEO
NORAD 65219·PAYLOAD·🇺🇸 United States

Gestartet Aug 14, 2025 von Cape Canaveral Space Force Station

Loading…

Nächste Überflüge (nächste 24 Stunden)

TLE

AktuellSource: CelesTrak SupGP

Epoche: Sep 15, 2026, 03:00 UTC

1 65219C 25176X   26258.12548611  .00072914  00000+0  21537-2 0  2585
2 65219  53.1599 349.1792 0001167  88.1932 327.6538 15.34362095    11

Verfolge STARLINK-34960 in Echtzeit mit AllMySat

Download on the App Store